DW8501 Madrid ES current weather conditions

sailwx.info

Wind from 007 at 0 knots gusting 5

Air temperature 15.0° C
Dewpoint 7.3° C

Last reported at 2014-Oct-25 23:50 UTC.
Time now 2014-Oct-26 00:26 UTC

Location: N 40°27' W 003°35'.
View on Google Maps.

See reports from other nearby stations

  
Tides and Currents Weather Stations Pressure Air Temp Water Temp Dewpoint Dewpoint Depression Visibility Wind Speed Wind Dir Waves Ship Positions
date/time (UTC)wind fromknots sea level pressurealtimeterstation pressurevisibilityair tempwater tempwave heightnotes
2014-Oct-25 23:50 007 0 gusting 5 15.0
2014-Oct-25 23:45 030 1 gusting 5 15.6
2014-Oct-25 23:40 029 3 gusting 5 15.6
2014-Oct-25 23:35 035 3 gusting 5 15.6
2014-Oct-25 23:30 044 2 gusting 6 15.6
2014-Oct-25 23:25 026 4 gusting 6 15.6
2014-Oct-25 23:20 012 1 gusting 4 15.6
2014-Oct-25 23:15 010 1 gusting 3 15.6
2014-Oct-25 23:10 346 1 gusting 3 15.6
2014-Oct-25 23:05 338 1 gusting 3 15.6
2014-Oct-25 23:00 353 1 gusting 3 15.6
2014-Oct-25 22:55 006 1 gusting 3 15.6
2014-Oct-25 22:50 017 1 gusting 3 15.6
2014-Oct-25 22:45 019 2 gusting 3 15.6
2014-Oct-25 22:40 011 1 gusting 3 15.6
2014-Oct-25 22:35 006 1 gusting 2 15.6
2014-Oct-25 22:30 001 0 gusting 3 15.6
2014-Oct-25 22:25 356 1 gusting 3 16.1
2014-Oct-25 22:15 297 1 gusting 2 16.1
2014-Oct-25 22:10 290 1 gusting 2 16.1
2014-Oct-25 22:05 270 0 gusting 1 16.1
2014-Oct-25 22:00 297 0 gusting 1 16.1
2014-Oct-25 21:55 312 0 gusting 1 16.1
2014-Oct-25 21:50 311 1 gusting 1 16.1
2014-Oct-25 21:45 287 0 gusting 1 16.1
2014-Oct-25 21:40 306 0 gusting 2 16.7
2014-Oct-25 21:35 345 0 gusting 2 16.7
2014-Oct-25 21:30 002 1 gusting 2 16.7
2014-Oct-25 21:25 355 1 gusting 2 16.7
2014-Oct-25 21:20 353 1 gusting 1 16.7
2014-Oct-25 21:15 17.2
2014-Oct-25 21:10 17.2
2014-Oct-25 21:05 17.2
2014-Oct-25 21:00 353 0 gusting 3 17.8
2014-Oct-25 20:55 351 1 gusting 3 17.2
2014-Oct-25 20:50 347 1 gusting 3 17.2
2014-Oct-25 20:45 324 1 gusting 1 17.2
2014-Oct-25 20:40 317 0 gusting 1 17.8
2014-Oct-25 20:35 315 1 gusting 1 17.8
2014-Oct-25 20:30 17.8
2014-Oct-25 20:25 17.8
2014-Oct-25 20:20 17.8
2014-Oct-25 20:15 18.3
2014-Oct-25 20:10 18.9
2014-Oct-25 20:05 124 1 gusting 2 19.4
2014-Oct-25 20:00 120 1 gusting 2 19.4
2014-Oct-25 19:55 105 1 gusting 2 19.4
2014-Oct-25 19:50 101 1 gusting 2 19.4
2014-Oct-25 19:45 093 1 gusting 1 19.4
2014-Oct-25 19:40 090 0 gusting 1 20.0
2014-Oct-25 19:35 20.0
2014-Oct-25 19:30 20.0
2014-Oct-25 19:25 20.0
2014-Oct-25 19:20 20.6
2014-Oct-25 19:15 20.6
2014-Oct-25 19:10 344 1 gusting 3 20.6
2014-Oct-25 19:05 330 0 gusting 1 20.6
2014-Oct-25 19:00 333 0 gusting 1 20.6
2014-Oct-25 18:55 339 0 gusting 1 20.6
2014-Oct-25 18:50 20.6
2014-Oct-25 18:45 20.6
2014-Oct-25 18:40 21.1
2014-Oct-25 18:35 21.1
2014-Oct-25 18:30 21.1
2014-Oct-25 18:25 21.1
2014-Oct-25 18:20 21.7
2014-Oct-25 18:15 21.7
2014-Oct-25 18:10 21.7
2014-Oct-25 18:05 21.7
2014-Oct-25 18:00 21.7
2014-Oct-25 17:55 22.2
2014-Oct-25 17:50 22.2
2014-Oct-25 17:45 22.2
2014-Oct-25 17:40 22.8
2014-Oct-25 17:35 22.8
2014-Oct-25 17:30 23.3
2014-Oct-25 17:25 23.3
2014-Oct-25 17:20 325 0 gusting 2 23.3
2014-Oct-25 17:15 23.9
2014-Oct-25 17:10 325 1 gusting 3 24.4
2014-Oct-25 17:05 326 1 gusting 3 25.0
2014-Oct-25 17:00 356 1 gusting 3 25.6
2014-Oct-25 16:55 037 1 gusting 5 26.1
2014-Oct-25 16:50 045 3 gusting 5 26.1
2014-Oct-25 16:45 045 3 gusting 5 26.1
2014-Oct-25 16:40 052 3 gusting 5 26.7
2014-Oct-25 16:35 059 3 gusting 5 26.7
2014-Oct-25 16:30 068 2 gusting 6 26.7
2014-Oct-25 16:25 070 3 gusting 6 26.7
2014-Oct-25 16:20 056 3 gusting 6 27.2
2014-Oct-25 16:15 055 5 gusting 6 27.2
2014-Oct-25 16:10 054 2 gusting 6 27.8
2014-Oct-25 16:05 064 3 gusting 6 27.8
2014-Oct-25 16:00 066 2 gusting 6 27.8
2014-Oct-25 15:55 051 1 gusting 6 27.8
2014-Oct-25 15:50 051 4 gusting 6 29.4
2014-Oct-25 15:45 28.3
2014-Oct-25 15:40 090 3 gusting 5 27.8
2014-Oct-25 15:35 069 2 gusting 5 28.9
2014-Oct-25 15:30 074 0 gusting 4 28.9
2014-Oct-25 15:25 089 2 gusting 6 27.8
2014-Oct-25 15:20 100 2 gusting 6 27.8
2014-Oct-25 15:15 090 3 gusting 6 28.3
2014-Oct-25 15:10 079 0 gusting 6 28.3
2014-Oct-25 15:05 086 4 gusting 6 28.3
2014-Oct-25 15:00 099 5 gusting 6 28.3
2014-Oct-25 14:55 113 2 gusting 6 28.3
2014-Oct-25 14:50 105 2 gusting 6 27.8
2014-Oct-25 14:45 121 0 gusting 5 27.8
2014-Oct-25 14:40 183 3 gusting 5 28.3
2014-Oct-25 14:35 196 2 gusting 5 28.3
2014-Oct-25 14:30 171 3 gusting 6 28.9
2014-Oct-25 14:25 184 1 gusting 6 28.3
2014-Oct-25 14:20 212 4 gusting 6 28.3
2014-Oct-25 14:15 220 1 gusting 4 28.3
2014-Oct-25 14:10 225 2 gusting 3 28.3
2014-Oct-25 14:05 228 1 gusting 5 28.3
2014-Oct-25 14:00 245 1 gusting 5 28.3
2014-Oct-25 13:55 230 1 gusting 5 28.3
2014-Oct-25 13:50 214 3 gusting 5 28.9
2014-Oct-25 13:45 153 0 gusting 5 29.4
2014-Oct-25 13:40 28.3
2014-Oct-25 13:35 118 4 gusting 6 29.4
2014-Oct-25 13:30 135 1 gusting 3 28.9
2014-Oct-25 13:25 098 1 gusting 3 28.3
2014-Oct-25 13:20 103 1 gusting 6 27.8
2014-Oct-25 13:15 114 2 gusting 6 26.7
2014-Oct-25 13:10 124 6 gusting 6 27.2
2014-Oct-25 13:05 140 4 gusting 6 28.9
2014-Oct-25 13:00 148 2 gusting 3 29.4
2014-Oct-25 12:55 257 1 gusting 5 28.9
2014-Oct-25 12:50 233 1 gusting 5 28.9
2014-Oct-25 12:45 167 1 gusting 3 28.9
2014-Oct-25 12:40 198 0 gusting 4 28.3
2014-Oct-25 12:35 216 1 gusting 5 28.3
2014-Oct-25 12:30 357 2 gusting 5 28.3
2014-Oct-25 12:25 110 3 gusting 5 28.3
2014-Oct-25 12:20 105 0 gusting 6 26.7
2014-Oct-25 12:15 084 4 gusting 6 26.1
2014-Oct-25 12:10 071 1 gusting 3 26.7
2014-Oct-25 12:05 068 3 gusting 3 27.2
2014-Oct-25 12:00 040 3 gusting 3 27.2
2014-Oct-25 11:55 319 0 gusting 2 27.2
2014-Oct-25 11:50 320 1 gusting 2 28.3
2014-Oct-25 11:45 27.2
2014-Oct-25 11:40 26.1
2014-Oct-25 11:35 101 2 gusting 4 25.6
2014-Oct-25 11:30 120 1 gusting 3 25.6
2014-Oct-25 11:25 122 1 gusting 4 25.0
2014-Oct-25 11:20 074 0 gusting 4 24.4
2014-Oct-25 11:15 051 0 gusting 7 23.3
2014-Oct-25 11:10 038 2 gusting 7 22.8
2014-Oct-25 11:05 038 5 gusting 6 22.8
2014-Oct-25 11:00 064 4 gusting 6 23.3
2014-Oct-25 10:55 099 1 gusting 5 23.3
2014-Oct-25 10:50 081 1 gusting 5 22.2
2014-Oct-25 10:45 061 1 gusting 5 21.7
2014-Oct-25 10:40 064 3 gusting 6 21.7
2014-Oct-25 10:35 065 3 gusting 6 21.7
2014-Oct-25 10:30 078 3 gusting 6 21.1
2014-Oct-25 10:25 089 2 gusting 6 21.1
2014-Oct-25 10:20 097 3 gusting 5 21.7
2014-Oct-25 10:15 101 1 gusting 6 21.1
2014-Oct-25 10:10 093 2 gusting 6 20.0
2014-Oct-25 10:05 078 2 gusting 6 19.4
2014-Oct-25 10:00 061 2 gusting 6 19.4
2014-Oct-25 09:55 051 3 gusting 6 19.4
2014-Oct-25 09:50 055 5 gusting 6 19.4
2014-Oct-25 09:45 064 3 gusting 5 20.0
2014-Oct-25 09:40 054 3 gusting 5 19.4
2014-Oct-25 09:35 064 3 gusting 4 19.4
2014-Oct-25 09:30 067 1 gusting 4 19.4
2014-Oct-25 09:25 056 2 gusting 3 19.4
2014-Oct-25 09:20 056 1 gusting 3 19.4
2014-Oct-25 09:15 037 2 gusting 6 19.4
2014-Oct-25 09:10 036 1 gusting 6 18.3
2014-Oct-25 09:05 041 3 gusting 6 18.3
2014-Oct-25 09:00 043 2 gusting 4 17.8
2014-Oct-25 08:55 050 2 gusting 4 17.8
2014-Oct-25 08:50 048 2 gusting 4 17.8
2014-Oct-25 08:45 053 1 gusting 4 17.2
2014-Oct-25 08:40 067 1 gusting 3 17.2
2014-Oct-25 08:35 069 1 gusting 3 17.2
2014-Oct-25 08:30 070 2 gusting 3 16.7
2014-Oct-25 08:25 076 1 gusting 3 16.7
2014-Oct-25 08:20 074 1 gusting 3 16.7
2014-Oct-25 08:15 055 2 gusting 3 16.7
2014-Oct-25 08:10 043 2 gusting 3 16.7
2014-Oct-25 08:05 047 3 gusting 3 15.6
2014-Oct-25 08:00 047 3 gusting 4 15.6
2014-Oct-25 07:55 039 3 gusting 4 15.6
2014-Oct-25 07:50 033 2 gusting 4 15.6
2014-Oct-25 07:45 026 2 gusting 4 15.0
2014-Oct-25 07:40 009 2 gusting 3 15.0
2014-Oct-25 07:35 353 1 gusting 3 15.0
2014-Oct-25 07:30 352 1 gusting 3 14.4
2014-Oct-25 07:25 353 1 gusting 3 13.9
2014-Oct-25 07:20 343 2 gusting 3 13.9
2014-Oct-25 07:15 332 1 gusting 3 13.3
2014-Oct-25 07:10 326 1 gusting 2 13.3
2014-Oct-25 07:05 12.8
2014-Oct-25 07:00 354 1 gusting 3 12.8
2014-Oct-25 06:55 339 2 gusting 3 12.8
2014-Oct-25 06:50 320 2 gusting 3 12.8
2014-Oct-25 06:45 331 1 gusting 1 12.8
2014-Oct-25 06:40 356 0 gusting 2 12.8
2014-Oct-25 06:35 13.3
2014-Oct-25 06:30 046 1 gusting 3 13.3
2014-Oct-25 06:25 045 3 gusting 3 13.3
2014-Oct-25 06:20 045 3 gusting 3 13.3
2014-Oct-25 06:15 055 2 gusting 4 13.3
2014-Oct-25 06:10 060 2 gusting 4 13.3
2014-Oct-25 06:05 056 3 gusting 3 13.3
2014-Oct-25 06:00 051 1 gusting 3 13.3
2014-Oct-25 05:55 053 1 gusting 2 13.3
2014-Oct-25 05:50 056 1 gusting 3 13.3
2014-Oct-25 05:45 050 0 gusting 3 13.3
2014-Oct-25 05:40 048 1 gusting 3 13.3
2014-Oct-25 05:35 041 1 gusting 4 13.9
2014-Oct-25 05:30 040 1 gusting 4 13.9
2014-Oct-25 05:25 033 3 gusting 5 13.9
2014-Oct-25 05:20 033 3 gusting 5 13.9
2014-Oct-25 05:15 033 3 gusting 5 13.9
2014-Oct-25 05:10 029 3 gusting 5 13.9
2014-Oct-25 05:05 023 2 gusting 4 13.9
2014-Oct-25 05:00 023 3 gusting 4 14.4
2014-Oct-25 04:55 023 1 gusting 5 14.4
2014-Oct-25 04:50 018 3 gusting 5 14.4
2014-Oct-25 04:45 032 3 gusting 5 14.4
2014-Oct-25 04:40 038 2 gusting 6 14.4
2014-Oct-25 04:35 032 3 gusting 6 14.4
2014-Oct-25 04:30 034 4 gusting 6 14.4
2014-Oct-25 04:25 043 4 gusting 6 14.4
2014-Oct-25 04:20 035 3 gusting 7 14.4
2014-Oct-25 04:15 023 4 gusting 7 14.4
2014-Oct-25 04:10 009 6 gusting 7 14.4
2014-Oct-25 04:05 003 3 gusting 6 14.4
2014-Oct-25 04:00 001 3 gusting 6 14.4
2014-Oct-25 03:55 005 5 gusting 6 14.4
2014-Oct-25 03:50 027 4 gusting 6 14.4
2014-Oct-25 03:45 036 3 gusting 9 15.0
2014-Oct-25 03:40 036 6 gusting 9 15.0
2014-Oct-25 03:35 042 3 gusting 8 15.0
2014-Oct-25 03:30 042 6 gusting 9 15.0
2014-Oct-25 03:25 046 4 gusting 9 15.0
2014-Oct-25 03:20 052 6 gusting 9 15.0
2014-Oct-25 03:15 047 6 gusting 8 15.0
2014-Oct-25 03:10 045 6 gusting 9 15.0
2014-Oct-25 03:05 045 6 gusting 9 15.6
2014-Oct-25 03:00 044 5 gusting 8 15.6
2014-Oct-25 02:55 043 4 gusting 9 15.6
2014-Oct-25 02:50 042 6 gusting 9 15.6
2014-Oct-25 02:45 045 5 gusting 6 15.6
2014-Oct-25 02:40 046 3 gusting 5 15.6
2014-Oct-25 02:35 029 1 gusting 3 15.6
2014-Oct-25 02:30 030 1 gusting 4 15.6
2014-Oct-25 02:25 045 1 gusting 4 16.1
2014-Oct-25 02:20 045 2 gusting 3 16.1
2014-Oct-25 02:15 045 1 gusting 4 16.1
2014-Oct-25 02:10 045 3 gusting 4 16.1
2014-Oct-25 02:05 043 3 gusting 4 16.1
2014-Oct-25 02:00 043 3 gusting 5 16.1
2014-Oct-25 01:55 044 2 gusting 5 16.1
2014-Oct-25 01:50 038 2 gusting 3 16.1
2014-Oct-25 01:45 023 1 gusting 1 15.6
2014-Oct-25 01:40 16.1
2014-Oct-25 01:35 16.1
2014-Oct-25 01:30 16.1
2014-Oct-25 01:25 344 0 gusting 3 16.1
2014-Oct-25 01:20 358 1 gusting 3 16.7
2014-Oct-25 01:15 358 2 gusting 3 16.7
2014-Oct-25 01:10 355 1 gusting 3 16.7
2014-Oct-25 01:05 018 1 gusting 4 16.7
2014-Oct-25 01:00 041 2 gusting 5 17.2
2014-Oct-25 00:55 044 3 gusting 5 17.2
2014-Oct-25 00:50 041 3 gusting 5 17.2
2014-Oct-25 00:45 043 3 gusting 5 17.2
2014-Oct-25 00:40 028 3 gusting 5 17.2
2014-Oct-25 00:35 348 2 gusting 3 17.2
2014-Oct-25 00:30 334 1 gusting 3 17.2
2014-Oct-25 00:25 314 1 gusting 3 17.8
2014-Oct-25 00:20 347 0 gusting 6 17.8
2014-Oct-25 00:15 056 1 gusting 8 18.3
2014-Oct-25 00:10 083 6 gusting 8 18.9
2014-Oct-25 00:05 090 5 gusting 7 18.3
2014-Oct-25 00:00 080 5 gusting 7 18.3
2014-Oct-24 23:55 072 6 gusting 8 18.3
2014-Oct-24 23:50 075 3 gusting 8 18.3
2014-Oct-24 23:45 086 5 gusting 6 18.3
2014-Oct-24 23:40 093 3 gusting 4 18.3
2014-Oct-24 23:35 090 2 gusting 5 18.3
2014-Oct-24 23:30 090 3 gusting 6 18.3
2014-Oct-24 23:25 092 2 gusting 6 18.9
2014-Oct-24 23:20 093 4 gusting 8 18.9
2014-Oct-24 23:15 088 4 gusting 11 18.9
2014-Oct-24 23:10 075 6 gusting 11 18.9
2014-Oct-24 23:05 080 6 gusting 8 18.9
2014-Oct-24 23:00 090 6 gusting 9 19.4
2014-Oct-24 22:55 087 4 gusting 9 19.4
2014-Oct-24 22:50 075 4 gusting 9 19.4
2014-Oct-24 22:45 069 6 gusting 10 19.4
2014-Oct-24 22:40 069 7 gusting 10 19.4
2014-Oct-24 22:35 060 6 gusting 9 19.4
2014-Oct-24 22:30 058 6 gusting 7 19.4
2014-Oct-24 22:25 068 4 gusting 8 19.4
2014-Oct-24 22:20 062 2 gusting 8 19.4
2014-Oct-24 22:15 055 3 gusting 6 19.4
2014-Oct-24 22:10 051 5 gusting 6 19.4
2014-Oct-24 22:05 047 4 gusting 6 19.4
2014-Oct-24 22:00 047 4 gusting 8 19.4
2014-Oct-24 21:55 047 4 gusting 9 19.4
2014-Oct-24 21:50 052 6 gusting 9 20.0
2014-Oct-24 21:45 056 5 gusting 7 20.0
2014-Oct-24 21:40 067 5 gusting 9 20.0
2014-Oct-24 21:35 077 5 gusting 9 20.0
2014-Oct-24 21:30 060 6 gusting 9 20.0
2014-Oct-24 21:25 049 6 gusting 9 20.0
2014-Oct-24 21:20 053 5 gusting 9 19.4
2014-Oct-24 21:15 052 5 gusting 7 19.4
2014-Oct-24 21:10 051 5 gusting 7 19.4
2014-Oct-24 21:05 067 3 gusting 7 19.4
2014-Oct-24 21:00 076 4 gusting 8 19.4
2014-Oct-24 20:55 075 6 gusting 8 19.4
2014-Oct-24 20:50 094 4 gusting 5 18.9
2014-Oct-24 20:45 098 3 gusting 5 19.4
2014-Oct-24 20:40 096 2 gusting 5 19.4
2014-Oct-24 20:35 103 1 gusting 5 19.4
2014-Oct-24 20:30 095 1 gusting 5 19.4
2014-Oct-24 20:25 106 1 gusting 3 19.4
2014-Oct-24 20:20 132 1 gusting 3 19.4
2014-Oct-24 20:15 086 0 gusting 5 20.0
2014-Oct-24 20:10 049 1 gusting 5 20.0
2014-Oct-24 20:05 047 4 gusting 6 20.0
2014-Oct-24 20:00 061 4 gusting 7 20.0
2014-Oct-24 19:55 088 4 gusting 7 20.0
2014-Oct-24 19:50 098 2 gusting 7 20.0
2014-Oct-24 19:45 070 5 gusting 13 20.0
2014-Oct-24 19:40 047 3 gusting 13 20.6
2014-Oct-24 19:35 042 10 gusting 13 20.6
2014-Oct-24 19:30 054 9 gusting 13 20.6
2014-Oct-24 19:25 054 9 gusting 13 20.6
2014-Oct-24 19:20 040 7 gusting 14 21.1
2014-Oct-24 19:15 035 9 gusting 14 21.1
2014-Oct-24 19:10 040 9 gusting 14 21.1
2014-Oct-24 19:05 041 9 gusting 14 21.1
2014-Oct-24 19:00 043 6 gusting 10 21.1
2014-Oct-24 18:55 047 7 gusting 9 21.1
2014-Oct-24 18:50 045 6 gusting 9 21.7
2014-Oct-24 18:45 051 6 gusting 9 21.7
2014-Oct-24 18:40 051 6 gusting 9 21.7
2014-Oct-24 18:35 045 6 gusting 9 22.2
2014-Oct-24 18:30 045 6 gusting 9 22.2
2014-Oct-24 18:25 045 8 gusting 9 22.2
2014-Oct-24 18:20 042 6 gusting 9 22.2
2014-Oct-24 18:15 042 6 gusting 10 22.8
2014-Oct-24 18:10 045 7 gusting 10 22.8
2014-Oct-24 18:05 041 6 gusting 13 23.3
2014-Oct-24 18:00 044 6 gusting 13 23.3
2014-Oct-24 17:55 046 9 gusting 13 23.3
2014-Oct-24 17:50 039 8 gusting 12 23.3
2014-Oct-24 17:45 040 9 gusting 12 23.9
2014-Oct-24 17:40 041 9 gusting 12 23.9
2014-Oct-24 17:35 037 8 gusting 12 23.9
2014-Oct-24 17:30 039 6 gusting 9 24.4
2014-Oct-24 17:25 046 6 gusting 9 24.4
2014-Oct-24 17:20 059 6 gusting 7 24.4
2014-Oct-24 17:15 075 4 gusting 6 24.4
2014-Oct-24 17:10 083 3 gusting 7 25.0
2014-Oct-24 17:05 091 5 gusting 7 25.0
2014-Oct-24 17:00 098 4 gusting 6 25.0
2014-Oct-24 16:55 097 4 gusting 7 25.0
2014-Oct-24 16:50 091 6 gusting 10 25.6
2014-Oct-24 16:45 090 3 gusting 10 25.6
2014-Oct-24 16:40 075 4 gusting 12 25.6
2014-Oct-24 16:35 075 6 gusting 12 26.1
2014-Oct-24 16:30 087 6 gusting 9 26.1
2014-Oct-24 16:25 080 5 gusting 12 26.1
2014-Oct-24 16:20 076 6 gusting 13 26.7
2014-Oct-24 16:15 083 3 gusting 13 26.7
2014-Oct-24 16:10 090 6 gusting 13 26.7
2014-Oct-24 16:05 089 6 gusting 13 26.7
2014-Oct-24 16:00 085 6 gusting 14 26.7
2014-Oct-24 15:55 088 8 gusting 17 26.7
2014-Oct-24 15:50 084 8 gusting 17 26.7
2014-Oct-24 15:45 082 8 gusting 18 26.7
2014-Oct-24 15:40 085 13 gusting 18 26.7
2014-Oct-24 15:35 089 10 gusting 14 26.7
2014-Oct-24 15:30 090 6 gusting 14 26.7
2014-Oct-24 15:25 079 6 gusting 14 26.7
2014-Oct-24 15:20 067 9 gusting 14 26.7
2014-Oct-24 15:15 076 11 gusting 17 26.7
2014-Oct-24 15:10 084 10 gusting 17 26.7
2014-Oct-24 15:05 077 13 gusting 14 26.7
2014-Oct-24 15:00 079 12 gusting 14 27.2
2014-Oct-24 14:55 081 12 gusting 13 27.8
2014-Oct-24 14:50 090 6 gusting 14 27.2
2014-Oct-24 14:45 094 9 gusting 14 27.2
2014-Oct-24 14:20 087 10 gusting 16 27.2
2014-Oct-24 14:15 087 9 gusting 16 27.2
2014-Oct-24 14:10 059 5 gusting 14 26.7
2014-Oct-24 14:05 060 8 gusting 14 27.2
2014-Oct-24 14:00 081 8 gusting 18 27.2
2014-Oct-24 13:55 089 6 gusting 18 26.7
2014-Oct-24 13:50 089 12 gusting 18 26.7
2014-Oct-24 13:45 087 13 gusting 18 26.7
2014-Oct-24 13:40 090 10 gusting 17 26.7
2014-Oct-24 13:35 090 12 gusting 17 26.7
2014-Oct-24 13:30 083 8 gusting 15 26.7
2014-Oct-24 13:25 076 9 gusting 19 26.7
2014-Oct-24 13:20 080 11 gusting 19 26.7
2014-Oct-24 13:15 080 9 gusting 13 26.7
2014-Oct-24 13:10 078 3 gusting 8 26.7
2014-Oct-24 13:05 075 3 gusting 9 26.7
2014-Oct-24 13:00 059 2 gusting 9 26.1
2014-Oct-24 12:55 073 6 gusting 7 26.7
2014-Oct-24 12:50 102 6 gusting 9 26.7
2014-Oct-24 12:45 120 4 gusting 9 26.1
2014-Oct-24 12:40 111 6 gusting 8 26.1
2014-Oct-24 12:35 109 3 gusting 7 25.6
2014-Oct-24 12:30 102 3 gusting 6 25.6
2014-Oct-24 12:25 094 3 gusting 6 25.6
2014-Oct-24 12:20 113 4 gusting 6 26.1
2014-Oct-24 12:15 126 3 gusting 4 26.7
2014-Oct-24 12:10 133 1 gusting 3 26.1
2014-Oct-24 12:05 129 1 gusting 3 26.1
2014-Oct-24 12:00 122 1 gusting 3 26.1
2014-Oct-24 11:55 109 1 gusting 3 26.1
2014-Oct-24 11:50 102 1 gusting 3 26.7
2014-Oct-24 11:45 093 1 gusting 3 27.2
2014-Oct-24 11:40 070 1 gusting 3 26.7
2014-Oct-24 11:35 094 0 gusting 2 26.7
2014-Oct-24 11:30 25.6
2014-Oct-24 11:25 139 1 gusting 5 24.4
2014-Oct-24 11:20 120 2 gusting 5 24.4
2014-Oct-24 11:15 123 3 gusting 4 24.4
2014-Oct-24 11:10 145 1 gusting 3 24.4
2014-Oct-24 11:05 115 1 gusting 3 25.0
2014-Oct-24 11:00 105 1 gusting 4 23.9
2014-Oct-24 10:55 112 2 gusting 4 24.4
2014-Oct-24 10:50 139 1 gusting 3 25.6
2014-Oct-24 10:45 168 1 gusting 3 25.0
2014-Oct-24 10:40 206 0 gusting 3 24.4
2014-Oct-24 10:35 165 1 gusting 3 24.4
2014-Oct-24 10:30 127 1 gusting 3 23.9
2014-Oct-24 10:25 152 1 gusting 3 23.9
2014-Oct-24 10:20 22.8
2014-Oct-24 10:15 130 1 gusting 3 22.8
2014-Oct-24 10:10 138 1 gusting 3 23.3
2014-Oct-24 10:05 131 1 gusting 3 22.2
2014-Oct-24 10:00 136 1 gusting 3 22.2
2014-Oct-24 09:55 146 1 gusting 3 22.2
2014-Oct-24 09:50 142 1 gusting 3 21.7
2014-Oct-24 09:45 120 0 gusting 3 21.7
2014-Oct-24 09:40 103 1 gusting 3 20.6
2014-Oct-24 09:35 099 1 gusting 3 20.0
2014-Oct-24 09:30 120 2 gusting 3 20.0
2014-Oct-24 09:25 138 1 gusting 3 20.6
2014-Oct-24 09:20 139 0 gusting 2 20.6
2014-Oct-24 09:15 140 1 gusting 2 20.6
2014-Oct-24 09:10 116 1 gusting 2 20.6
2014-Oct-24 09:05 20.6
2014-Oct-24 09:00 20.0
2014-Oct-24 08:55 091 1 gusting 2 19.4
2014-Oct-24 08:50 107 1 gusting 2 20.0
2014-Oct-24 08:45 120 0 gusting 2 20.6
2014-Oct-24 08:40 100 0 gusting 1 22.2
2014-Oct-24 08:35 21.7
2014-Oct-24 08:30 20.0
2014-Oct-24 08:25 19.4
2014-Oct-24 08:20 18.9
2014-Oct-24 08:15 18.3
2014-Oct-24 08:10 17.8
2014-Oct-24 08:05 124 1 gusting 1 16.7
2014-Oct-24 08:00 112 1 gusting 1 16.7
2014-Oct-24 07:55 116 0 gusting 1 16.7
2014-Oct-24 07:50 15.6
2014-Oct-24 07:45 124 1 gusting 2 15.6
2014-Oct-24 07:40 117 0 gusting 1 15.6
2014-Oct-24 07:35 104 1 gusting 1 15.6
2014-Oct-24 07:30 15.6
2014-Oct-24 07:25 15.0
2014-Oct-24 07:20 14.4
2014-Oct-24 07:15 13.9
2014-Oct-24 07:10 162 0 gusting 1 13.9
2014-Oct-24 07:05 13.3
2014-Oct-24 07:00 13.3
2014-Oct-24 06:55 169 0 gusting 1 12.8
2014-Oct-24 06:50 12.8
2014-Oct-24 06:45 12.2
2014-Oct-24 06:40 12.2
2014-Oct-24 06:35 12.2
2014-Oct-24 06:30 12.8
2014-Oct-24 06:25 12.8
2014-Oct-24 06:20 12.8
2014-Oct-24 06:15 12.8
2014-Oct-24 06:10 189 0 gusting 1 12.8
2014-Oct-24 06:05 188 1 gusting 2 12.8
2014-Oct-24 06:00 194 1 gusting 3 12.8
2014-Oct-24 05:55 196 1 gusting 3 12.8
2014-Oct-24 05:50 207 1 gusting 3 12.8
2014-Oct-24 05:45 221 1 gusting 3 12.8
2014-Oct-24 05:40 217 0 gusting 3 12.8
2014-Oct-24 05:35 211 1 gusting 3 12.8
2014-Oct-24 05:30 205 1 gusting 2 13.3
2014-Oct-24 05:25 202 0 gusting 2 13.3
2014-Oct-24 05:20 206 1 gusting 2 13.3
2014-Oct-24 05:15 209 1 gusting 2 13.3
2014-Oct-24 05:10 13.3
2014-Oct-24 05:05 194 0 gusting 2 13.3
2014-Oct-24 05:00 193 1 gusting 2 13.3
2014-Oct-24 04:55 185 1 gusting 2 13.9
2014-Oct-24 04:50 184 1 gusting 2 13.9
2014-Oct-24 04:45 181 1 gusting 1 13.9
2014-Oct-24 04:40 13.3
2014-Oct-24 04:35 13.9
2014-Oct-24 04:30 13.9
2014-Oct-24 04:25 14.4
2014-Oct-24 04:20 14.4
2014-Oct-24 04:15 113 0 gusting 1 14.4
2014-Oct-24 04:10 164 0 gusting 1 14.4
2014-Oct-24 04:05 191 1 gusting 1 14.4
2014-Oct-24 04:00 217 1 gusting 1 14.4
2014-Oct-24 03:55 231 0 gusting 1 14.4
2014-Oct-24 03:50 227 1 gusting 1 14.4
2014-Oct-24 03:45 230 1 gusting 1 14.4
2014-Oct-24 03:40 215 1 gusting 1 15.0
2014-Oct-24 03:35 192 0 gusting 1 15.0
2014-Oct-24 03:30 191 0 gusting 1 15.0
2014-Oct-24 03:25 182 0 gusting 1 15.0
2014-Oct-24 03:20 15.0
2014-Oct-24 03:15 181 0 gusting 1 15.0
2014-Oct-24 03:10 15.6
2014-Oct-24 03:05 15.6
2014-Oct-24 03:00 314 1 gusting 1 15.6
2014-Oct-24 02:55 317 0 gusting 1 15.6
2014-Oct-24 02:50 15.6
2014-Oct-24 02:45 342 0 gusting 2 16.1
2014-Oct-24 02:40 343 1 gusting 3 16.1
2014-Oct-24 02:35 335 1 gusting 3 16.1
2014-Oct-24 02:30 328 1 gusting 3 15.6
2014-Oct-24 02:25 319 0 gusting 2 15.6
2014-Oct-24 02:20 303 1 gusting 2 15.6
2014-Oct-24 02:15 15.6
2014-Oct-24 02:10 033 1 gusting 1 15.0
2014-Oct-24 02:05 15.6
2014-Oct-24 02:00 15.6
2014-Oct-24 01:55 253 1 gusting 3 15.6
2014-Oct-24 01:50 222 1 gusting 2 15.6
2014-Oct-24 01:45 210 0 gusting 1 15.6
2014-Oct-24 01:40 201 1 gusting 1 15.6
2014-Oct-24 01:35 202 1 gusting 1 15.6
2014-Oct-24 01:30 15.6
2014-Oct-24 01:25 16.1
2014-Oct-24 01:20 040 3 gusting 4 16.1
2014-Oct-24 01:15 041 2 gusting 4 16.7
2014-Oct-24 01:10 028 2 gusting 4 16.1
2014-Oct-24 01:05 358 2 gusting 3 16.1
2014-Oct-24 01:00 340 1 gusting 3 16.1
2014-Oct-24 00:55 322 1 gusting 3 16.1
2014-Oct-24 00:50 311 1 gusting 1 16.1
2014-Oct-24 00:45 16.1
2014-Oct-24 00:40 16.1
2014-Oct-24 00:35 040 0 gusting 3 16.1
2014-Oct-24 00:30 039 1 gusting 3 16.7
2014-Oct-24 00:25 011 1 gusting 5 16.7
2014-Oct-24 00:20 004 2 gusting 5 16.7
2014-Oct-24 00:15 006 2 gusting 5 16.7
2014-Oct-24 00:10 358 2 gusting 4 16.7
2014-Oct-24 00:05 358 1 gusting 3 16.7
2014-Oct-24 00:00 354 1 gusting 4 16.7